Regional Weather Roundup
Issued by NWS New Orleans/Baton Rouge, LA

Home | Current Version | Previous Version | Text Only | Print | Product List | Glossary On
Versions: 1 2 3 4 5 6 7 8 9 10 11 12 13 14 15 16 17 18 19 20 21 22 23 24 25 26 27 28 29 30 31 32 33 34 35 36 37 38 39 40 41 42 43 44 45 46 47 48 49 50
522
ASUS44 KLIX 231310
RWRLIX
NEW ORLEANS REGIONAL WEATHER ROUNDUP
NATIONAL WEATHER SERVICE NEW ORLEANS LA
700 AM CST SUN NOV 23 2014

NOTE: "FAIR" INDICATES FEW OR NO CLOUDS BELOW 12,000 FEET WITH NO
      SIGNIFICANT WEATHER AND/OR OBSTRUCTIONS TO VISIBILITY.
      SKY/WX - SKY CONDITION AND SIGNIFICANT WEATHER.
      TMP - AIR TEMPERATURE.     DP    - DEWPOINT TEMPERATURE.
      RH  - RELATIVE HUMIDITY.   PRES  - PRESSURE.
      HI  - HEAT INDEX.          WCI   - WIND CHILL INDEX.

*  THESE STATIONS ARE NOT NWS OR FAA STATIONS AND ARE NOT UNDER
   NWS QUALITY CONTROL.

LAZ038-040-048-061>063-065>067-069-231400-
SOUTHEAST LOUISIANA

CITY           SKY/WX    TMP DP  RH WIND       PRES   REMARKS
N.O. AUDUBON   NOT AVBL
N.O. INTL ARPT LGT RAIN  64  62  93 SW9G23    29.74R
N.O. LAKEFRONT RAIN      66  63  90 SW15      29.74R FOG
N.O. DOWNTOWN* CLOUDY    64  61  88 S7G22     29.75R
SLIDELL        HVY RAIN  67  65  93 E9        29.71F FOG
BATON ROUGE    LGT RAIN  65  63  93 SE13      29.66F
BOOTHVILLE     CLOUDY    68  68 100 S13       29.75R
BELLE CHASSE   LGT RAIN  67  63  87 SW18G24   29.74R
BOGALUSA*      LGT RAIN  64  61  91 E7        29.73F
NEW ROADS*     LGT RAIN  64  63  97 E17G23    29.61F
GONZALES*      DRIZZLE   64  64 100 SE6       29.68F
HAMMOND*       LGT RAIN  64  61  88 E6        29.70F
HOUMA*         MOCLDY    63  63 100 SW9       29.76S FOG
PORT FOURCHON* PTSUNNY   63  61  94 W17G30    29.84R FOG

$$

MSZ070-080>082-231400-
SOUTHERN MISSISSIPPI

CITY           SKY/WX    TMP DP  RH WIND       PRES   REMARKS
MCCOMB         LGT RAIN  61  60  97 E5        29.70F FOG
GULFPORT       LGT RAIN  67  66  97 E10       29.70F FOG
BILOXI         LGT RAIN  66  66 100 SE9       29.71F
PASCAGOULA     LGT RAIN  70  69  97 SE7       29.73F
STENNIS ARPT*  TSTM      66  63  88 CALM      29.73  FOG

$$

COASTAL OBSERVATIONS
LAKE AND NEARSHORE STATIONS

STATION/POSITION TIME  TEMP    WIND        PRES    WAVE
                       AIR SEA DIR/SP/G            HT/PER
                 (UTC) (F)     (DEG/KT/KT) (MB)    (FT/S)
PASCAGOULA       1300   68     110/  4/  9 1006.2
WAVELAND YACHT   1300   66     230/  3/  6 1005.6
GRAND ISLE       1300   64 63  260/ 20/ 28 1009.1
SOUTHWEST PASS   1300   71 71              1008.3
NEW CANAL        1300   63 54  250/  6/  8 1007.0
SHELL BEACH      1300   64 53  130/  7/ 10 1005.8

OFFSHORE STATIONS

STATION/POSITION TIME  TEMP    WIND        PRES    WAVE
                       AIR SEA DIR/SP/G            HT/PER
                 (UTC) (F)     (DEG/KT/KT) (MB)    (FT/S)
64 S DAUPHIN ISL 1212   75 73  170/ 19/ 23 1008.2    7/ 8

$$




USA.gov is the U.S. government's official web portal to all federal, state and local government web resources and services.